TimeEST,TemperatureF,Dew PointF,Humidity,Sea Level PressureIn,VisibilityMPH,Wind Direction,Wind SpeedMPH,Gust SpeedMPH,PrecipitationIn,Events,Conditions,WindDirDegrees,DateUTC
12:15 AM,1.4,-9999,N/A,29.89,10.0,WSW,3.5,-,N/A,,Clear,250,2013-02-05 05:15:00
12:35 AM,3.2,-18.4,36,29.89,10.0,Calm,Calm,-,N/A,,Clear,0,2013-02-05 05:35:00
12:55 AM,-0.4,-5.8,78,29.89,10.0,WNW,3.5,-,N/A,,Clear,290,2013-02-05 05:55:00
1:15 AM,1.4,-0.4,92,29.87,10.0,Calm,Calm,-,N/A,,Clear,0,2013-02-05 06:15:00
1:35 AM,-0.4,-9.4,66,29.86,10.0,Calm,Calm,-,N/A,,Clear,0,2013-02-05 06:35:00
1:55 AM,-4.0,-11.2,71,29.87,10.0,West,3.5,-,N/A,,Clear,280,2013-02-05 06:55:00
2:15 AM,-7.6,-16.6,65,29.86,10.0,Calm,Calm,-,N/A,,Clear,0,2013-02-05 07:15:00
2:35 AM,-5.8,-11.2,77,29.86,10.0,Calm,Calm,-,N/A,,Mostly Cloudy,0,2013-02-05 07:35:00
2:55 AM,-5.8,-16.6,60,29.86,10.0,Calm,Calm,-,N/A,,Mostly Cloudy,0,2013-02-05 07:55:00
3:15 AM,-5.8,-14.8,65,29.85,10.0,Calm,Calm,-,N/A,,Mostly Cloudy,0,2013-02-05 08:15:00
3:35 AM,-5.8,-16.6,60,29.84,10.0,Calm,Calm,-,N/A,,Overcast,0,2013-02-05 08:35:00
3:55 AM,-2.2,-9999,N/A,29.83,10.0,West,3.5,-,N/A,,Overcast,270,2013-02-05 08:55:00
4:15 AM,-0.4,-23.8,32,29.82,10.0,Calm,Calm,-,N/A,,Overcast,0,2013-02-05 09:15:00
4:35 AM,1.4,-0.4,92,29.81,10.0,Calm,Calm,-,N/A,,Overcast,0,2013-02-05 09:35:00
4:55 AM,5.0,1.4,85,29.80,10.0,SSW,5.8,-,N/A,,Overcast,200,2013-02-05 09:55:00
5:15 AM,6.8,-2.2,67,29.79,10.0,SSW,5.8,-,N/A,,Overcast,200,2013-02-05 10:15:00
5:35 AM,6.8,-0.4,72,29.78,10.0,SSW,5.8,-,N/A,,Overcast,210,2013-02-05 10:35:00
5:55 AM,6.8,-0.4,72,29.78,10.0,SW,3.5,-,N/A,,Overcast,230,2013-02-05 10:55:00
6:15 AM,6.8,-0.4,72,29.78,9.0,West,4.6,-,N/A,,Overcast,270,2013-02-05 11:15:00
6:35 AM,6.8,-0.4,72,29.78,1.8,WSW,4.6,-,N/A,,Overcast,240,2013-02-05 11:35:00
6:55 AM,8.6,3.2,79,29.77,1.2,SW,8.1,-,N/A,,Overcast,220,2013-02-05 11:55:00
7:15 AM,8.6,3.2,79,29.75,1.5,SSW,5.8,-,N/A,,Overcast,200,2013-02-05 12:15:00
7:35 AM,10.4,6.8,85,29.75,2.5,SSW,4.6,-,N/A,,Overcast,200,2013-02-05 12:35:00
7:55 AM,10.4,6.8,85,29.74,1.5,SSW,6.9,-,N/A,,Overcast,200,2013-02-05 12:55:00
8:15 AM,12.2,8.6,85,29.73,0.8,SSW,5.8,-,N/A,,Overcast,200,2013-02-05 13:15:00
8:35 AM,12.2,10.4,92,29.72,1.5,SSW,9.2,16.1,N/A,,Overcast,200,2013-02-05 13:35:00
8:55 AM,12.2,8.6,85,29.71,2.0,SSW,10.4,-,N/A,,Overcast,200,2013-02-05 13:55:00
9:15 AM,12.2,8.6,85,29.71,2.5,SSW,9.2,-,N/A,,Overcast,210,2013-02-05 14:15:00
9:35 AM,14.0,10.4,86,29.71,2.5,SW,10.4,-,N/A,,Overcast,220,2013-02-05 14:35:00
9:55 AM,14.0,8.6,79,29.70,3.0,SW,10.4,-,N/A,,Overcast,230,2013-02-05 14:55:00
10:15 AM,12.2,8.6,85,29.70,9.0,WSW,8.1,-,N/A,,Overcast,240,2013-02-05 15:15:00
10:35 AM,12.2,8.6,85,29.70,7.0,WSW,11.5,17.3,N/A,,Overcast,250,2013-02-05 15:35:00
10:55 AM,14.0,8.6,79,29.70,10.0,West,12.7,-,N/A,,Overcast,260,2013-02-05 15:55:00
11:15 AM,14.0,8.6,79,29.70,10.0,West,11.5,-,N/A,,Overcast,270,2013-02-05 16:15:00
11:35 AM,14.0,10.4,86,29.70,1.5,West,9.2,-,N/A,,Overcast,280,2013-02-05 16:35:00
11:55 AM,15.8,8.6,73,29.70,10.0,West,12.7,-,N/A,,Overcast,260,2013-02-05 16:55:00
12:15 PM,15.8,15.8,100,29.69,10.0,West,9.2,-,N/A,,Overcast,270,2013-02-05 17:15:00
12:35 PM,15.8,12.2,86,29.69,10.0,WNW,11.5,-,N/A,,Overcast,290,2013-02-05 17:35:00
12:55 PM,15.8,10.4,79,29.70,10.0,WNW,11.5,-,N/A,,Overcast,290,2013-02-05 17:55:00
1:15 PM,17.6,8.6,68,29.70,10.0,WNW,13.8,-,N/A,,Overcast,290,2013-02-05 18:15:00
1:35 PM,19.4,10.4,68,29.71,10.0,NW,9.2,-,N/A,,Mostly Cloudy,320,2013-02-05 18:35:00
1:55 PM,21.2,10.4,63,29.71,10.0,NW,12.7,17.3,N/A,,Partly Cloudy,320,2013-02-05 18:55:00
2:15 PM,21.2,10.4,63,29.72,10.0,NW,12.7,18.4,N/A,,Scattered Clouds,320,2013-02-05 19:15:00
2:35 PM,21.2,10.4,63,29.73,10.0,NNW,10.4,-,N/A,,Scattered Clouds,330,2013-02-05 19:35:00
2:55 PM,23.0,10.4,59,29.73,10.0,NNW,8.1,-,N/A,,Mostly Cloudy,330,2013-02-05 19:55:00
3:15 PM,23.0,10.4,59,29.75,10.0,NNW,9.2,17.3,N/A,,Overcast,330,2013-02-05 20:15:00
3:35 PM,23.0,8.6,54,29.76,10.0,NNW,10.4,19.6,N/A,,Overcast,330,2013-02-05 20:35:00
3:55 PM,23.0,10.4,59,29.77,10.0,NW,12.7,18.4,N/A,,Overcast,320,2013-02-05 20:55:00
4:15 PM,24.8,10.4,54,29.79,10.0,NNW,8.1,-,N/A,,Overcast,340,2013-02-05 21:15:00
4:35 PM,24.8,8.6,50,29.79,10.0,NW,8.1,16.1,N/A,,Overcast,320,2013-02-05 21:35:00
4:55 PM,24.8,8.6,50,29.80,10.0,NW,9.2,16.1,N/A,,Overcast,320,2013-02-05 21:55:00
5:15 PM,24.8,8.6,50,29.81,10.0,NW,11.5,-,N/A,,Overcast,320,2013-02-05 22:15:00
5:35 PM,23.0,8.6,54,29.82,10.0,NW,9.2,-,N/A,,Overcast,310,2013-02-05 22:35:00
5:55 PM,23.0,8.6,54,29.83,10.0,NW,6.9,-,N/A,,Overcast,310,2013-02-05 22:55:00
6:15 PM,23.0,8.6,54,29.85,10.0,NNW,10.4,-,N/A,,Overcast,330,2013-02-05 23:15:00
6:35 PM,21.2,12.2,68,29.87,10.0,North,4.6,-,N/A,,Overcast,360,2013-02-05 23:35:00
6:55 PM,21.2,12.2,68,29.89,10.0,North,4.6,-,N/A,,Overcast,350,2013-02-05 23:55:00
7:15 PM,19.4,12.2,74,29.90,10.0,North,9.2,-,N/A,,Overcast,350,2013-02-06 00:15:00
7:35 PM,19.4,10.4,68,29.91,10.0,North,4.6,-,N/A,,Mostly Cloudy,360,2013-02-06 00:35:00
8:15 PM,17.6,10.4,73,29.95,10.0,North,5.8,-,N/A,,Mostly Cloudy,350,2013-02-06 01:15:00
8:35 PM,17.6,10.4,73,29.95,10.0,NNW,5.8,-,N/A,,Partly Cloudy,340,2013-02-06 01:35:00
8:55 PM,15.8,8.6,73,29.96,10.0,NNW,4.6,-,N/A,,Clear,330,2013-02-06 01:55:00
9:15 PM,15.8,8.6,73,29.97,10.0,NW,4.6,-,N/A,,Partly Cloudy,320,2013-02-06 02:15:00
9:35 PM,14.0,6.8,73,29.98,10.0,NW,3.5,-,N/A,,Clear,320,2013-02-06 02:35:00
9:55 PM,12.2,5.0,73,29.99,10.0,NW,3.5,-,N/A,,Clear,320,2013-02-06 02:55:00
10:15 PM,12.2,6.8,79,30.01,10.0,NW,3.5,-,N/A,,Clear,320,2013-02-06 03:15:00
10:35 PM,8.6,3.2,79,30.01,10.0,NW,3.5,-,N/A,,Clear,320,2013-02-06 03:35:00
10:55 PM,6.8,1.4,79,30.01,10.0,NW,3.5,-,N/A,,Clear,310,2013-02-06 03:55:00
11:15 PM,5.0,-0.4,78,30.02,10.0,WNW,6.9,-,N/A,,Clear,290,2013-02-06 04:15:00
11:35 PM,6.8,1.4,79,30.02,10.0,WNW,4.6,-,N/A,,Clear,290,2013-02-06 04:35:00
11:55 PM,5.0,-2.2,72,30.03,10.0,West,6.9,-,N/A,,Clear,270,2013-02-06 04:55:00